Location: East Guldeford
(50.9500°N, 0.7500°E)
Time: 18:24:49
(UTC+00:00)

Cosmos 2218 Rocket - Pass Details

Date: 12 May 2021
Orbit: 957 x 1005 km, 82.9° (Epoch: 16 June)

Event Time Altitude Azimuth Distance (km) Brightness Sun altitude
Rises 22:33:19 0° 350° (N) 3,687 8.6 -18.5°
Reaches altitude 10° 22:35:49 10° 351° (N) 2,743 7.6 -18.6°
Maximum altitude 22:42:08 82° 79° (E) 1,005 4.0 -18.9°
Enters shadow 22:45:18 32° 165° (SSE) 1,630 4.6 -19.1°
